Dati Storici

Data ora Umidita' aria (%) Temperatura aria (°C) Rad globale (W/m²) Gonioanemometro (°) Tacoanemometro (m/s) Pioggia (mm)
13-06-2020 06:10 93.5 % 18.521 -68.118 -0.009 0 0
13-06-2020 06:00 94.1 % 17.73 -63.646 -0.005 0 0
13-06-2020 05:50 95.5 % 17.669 -53.874 0.626 0 0
13-06-2020 05:40 97.6 % 17.376 -53.871 -0.002 0 0
13-06-2020 05:30 97.7 % 16.954 -74.477 0.002 0 0
13-06-2020 05:20 97.7 % 16.53 -33.086 0.009 0 0
13-06-2020 05:10 97.7 % 16.456 -49.485 0.171 0 0
13-06-2020 05:00 97.7 % 16.67 -50.49 0.479 0 0
13-06-2020 04:50 97.7 % 16.777 -53.206 -0.005 0 0
13-06-2020 04:40 97.7 % 16.593 -54.236 -0.003 0 0
13-06-2020 04:30 97.7 % 16.129 -72.106 -0.004 0 0
13-06-2020 04:20 97.7 % 16.309 -61.962 -0.003 0 0
13-06-2020 04:10 97.3 % 16.003 -68.19 -0.005 0 0
13-06-2020 04:00 96.5 % 16.278 -64.461 -0.003 0 0
13-06-2020 03:50 95.7 % 16.357 -69.258 -0.003 0 0
13-06-2020 03:40 94.4 % 16.55 -67.21 -0.003 0 0
13-06-2020 03:30 93.2 % 16.675 -75.44 -0.003 0 0
13-06-2020 03:20 90.1 % 16.648 -68.101 -0.003 0 0
13-06-2020 03:10 90.4 % 17.096 -79.289 -0.002 0 0
13-06-2020 03:00 87.8 % 17.362 -78.523 -0.003 0 0

I dati sono presentati in modo automatico a scopo informativo. In seguito a verifica i dati possono subire modifiche o essere invalidati e non riportati negli archivi definitivi.